QPF
0.00 0.00 0.00 0.00 0.00 0.00 0.00 0.00 0.00 0.00 0.00 0.00 0.00 0.00 0.00 0.00 0.00 0.00 0.00 0.00 0.00 0.00 0.00 0.00 0.00 0.00 0.00 0.00 0.00 0.00 0.00 0.00 0.00 0.00 0.00 0.00 0.00 0.00 0.00 0.00 0.00 0.00 0.00 0.00 0.00
0.00 0.00 0.00 0.00 0.00 0.00 0.00 0.00 0.00 0.00 0.00 0.00 0.00 0.00 0.00 0.00 0.00 0.00 0.00 0.00 0.00 0.00 0.00 0.00 0.00 0.00 0.00 0.00 0.00 0.00 0.00 0.00 0.00 0.00 0.00 0.00 0.00 0.00 0.00 0.00 0.00 0.00 0.00 0.00 0.00
0.00 0.00 0.00 0.00 0.00 0.00 0.00 0.00 0.00 0.00 0.00 0.00 0.00 0.00 0.00 0.00 0.00 0.00 0.00 0.00 0.00 0.00 0.00 0.00 0.00 0.00 0.00 0.00 0.00 0.00 0.00 0.00 0.00 0.00 0.00 0.00 0.00 0.00 0.00 0.00 0.00 0.00 0.00 0.00 0.00
0.00 0.00 0.00 0.00 0.00 0.00 0.00 0.00 0.00 0.00 0.00 0.00 0.00 0.00 0.00 0.00 0.00 0.00 0.00 0.00 0.00 0.00 0.00 0.00 0.00 0.00 0.00 0.01 0.00 0.01 0.00 0.00 0.00 0.00 0.00 0.00 0.00 0.00 0.00 0.00 0.00 0.00 0.00 0.00 0.00
0.00 0.00 0.00 0.00 0.00 0.00 0.00 0.00 0.00 0.00 0.00 0.00 0.00 0.00 0.00 0.00 0.00 0.00 0.00 0.00 0.00 0.00 0.00 0.00 0.00 0.00 0.01 0.00 0.00 0.00 0.00 0.00 0.00 0.00 0.00 0.00 0.00 0.00 0.00 0.00 0.00 0.00 0.00 0.00 0.00
0.00 0.00 0.00 0.00 0.00 0.00 0.00 0.00 0.00 0.00 0.00 0.00 0.00 0.00 0.00 0.00 0.00 0.00 0.00 0.00 0.00 0.00 0.00 0.00 0.00 0.00 0.00 0.00 0.00 0.00 0.00 0.00 0.00 0.00 0.00 0.00 0.00 0.00 0.00 0.00 0.00 0.00 0.00 0.00 0.00
0.00 0.00 0.00 0.00 0.00 0.00 0.00 0.00 0.00 0.00 0.00 0.00 0.00 0.00 0.00 0.00 0.00 0.00 0.00 0.00 0.00 0.00 0.00 0.00 0.00 0.00 0.00 0.00 0.00 0.00 0.00 0.00 0.00 0.00 0.00 0.00 0.00 0.00 0.00 0.00 0.00 0.00 0.00 0.00 0.00
0.00 0.00 0.00 0.00 0.00 0.00 0.00 0.00 0.00 0.00 0.00 0.00 0.00 0.00 0.00 0.00 0.00 0.00 0.00 0.00 0.00 0.00 0.00 0.00 0.00 0.00 0.00 0.00 0.00 0.00 0.00 0.01 0.02 0.00 0.00 0.02 0.06 0.00 0.00 0.00 0.00 0.00 0.00 0.00 0.00
0.00 0.00 0.00 0.00 0.00 0.00 0.00 0.00 0.00 0.00 0.00 0.00 0.00 0.00 0.00 0.00 0.00 0.00 0.00 0.00 0.00 0.00 0.00 0.00 0.00 0.00 0.00 0.00 0.00 0.00 0.06 0.08 0.09 0.00 0.00 0.00 0.12 0.00 0.00 0.00 0.00 0.00 0.00 0.00 0.00
0.00 0.00 0.00 0.00 0.00 0.00 0.00 0.00 0.00 0.00 0.00 0.00 0.00 0.00 0.00 0.00 0.00 0.00 0.00 0.00 0.00 0.00 0.00 0.00 0.00 0.00 0.00 0.00 0.01 0.03 0.00 0.00 0.01 0.03 0.00 0.00 0.00 0.01 0.00 0.00 0.00 0.00 0.00 0.00 0.00
0.00 0.00 0.00 0.00 0.00 0.00 0.00 0.00 0.00 0.00 0.00 0.00 0.00 0.00 0.00 0.00 0.00 0.00 0.00 0.00 0.00 0.00 0.00 0.00 0.00 0.00 0.00 0.00 0.00 0.00 0.00 0.01 0.00 0.01 0.00 0.00 0.01 0.04 0.11 0.02 0.00 0.00 0.00 0.00 0.00
0.00 0.00 0.00 0.00 0.00 0.00 0.00 0.00 0.00 0.00 0.00 0.00 0.00 0.00 0.00 0.00 0.00 0.00 0.00 0.00 0.00 0.00 0.00 0.00 0.00 0.00 0.02 0.00 0.00 0.00 0.00 0.03 0.00 0.00 0.00 0.00 0.00 0.00 0.01 0.01 0.00 0.00 0.00 0.00 0.00
0.00 0.00 0.00 0.00 0.00 0.00 0.00 0.00 0.00 0.00 0.00 0.00 0.00 0.00 0.00 0.00 0.00 0.00 0.00 0.00 0.00 0.00 0.00 0.00 0.00 0.00 0.00 0.00 0.00 0.01 0.01 0.02 0.00 0.00 0.00 0.00 0.00 0.00 0.00 0.00 0.00 0.00 0.00 0.00 0.00
0.00 0.00 0.00 0.00 0.00 0.00 0.00 0.00 0.00 0.00 0.00 0.00 0.00 0.00 0.00 0.00 0.00 0.00 0.00 0.00 0.00 0.00 0.00 0.00 0.00 0.00 0.00 0.00 0.00 0.01 0.01 0.00 0.00 0.00 0.00 0.01 0.01 0.00 0.00 0.00 0.00 0.00 0.00 0.00 0.00
0.00 0.00 0.00 0.00 0.00 0.00 0.00 0.00 0.00 0.00 0.00 0.00 0.00 0.00 0.00 0.00 0.00 0.00 0.00 0.00 0.00 0.00 0.00 0.00 0.00 0.00 0.00 0.00 0.00 0.00 0.01 0.00 0.00 0.00 0.00 0.00 0.00 0.01 0.00 0.00 0.00 0.00 0.00 0.00 0.00
0.00 0.00 0.00 0.00 0.00 0.00 0.00 0.00 0.00 0.00 0.00 0.00 0.00 0.00 0.00 0.00 0.00 0.00 0.00 0.00 0.00 0.00 0.00 0.00 0.00 0.00 0.00 0.00 0.00 0.00 0.00 0.00 0.00 0.00 0.05 0.05 0.00 0.00 0.01 0.00 0.00 0.00 0.00 0.00 0.00
0.00 0.00 0.00 0.00 0.00 0.00 0.00 0.00 0.00 0.00 0.00 0.00 0.00 0.00 0.00 0.00 0.00 0.00 0.00 0.00 0.00 0.00 0.00 0.00 0.00 0.00 0.00 0.00 0.00 0.00 0.00 0.01 0.03 0.14 0.27 0.04 0.00 0.00 0.00 0.00 0.00 0.00 0.00 0.00 0.00
0.00 0.00 0.00 0.00 0.00 0.00 0.00 0.00 0.00 0.00 0.00 0.00 0.00 0.00 0.00 0.00 0.00 0.00 0.00 0.00 0.00 0.00 0.00 0.00 0.00 0.00 0.00 0.00 0.00 0.00 0.00 0.03 0.01 0.01 0.16 0.02 0.00 0.00 0.00 0.00 0.00 0.00 0.00 0.00 0.00
0.00 0.00 0.00 0.00 0.00 0.00 0.00 0.00 0.00 0.00 0.00 0.00 0.00 0.00 0.00 0.00 0.00 0.00 0.00 0.00 0.00 0.00 0.00 0.00 0.00 0.00 0.00 0.00 0.00 0.00 0.00 0.00 0.00 0.00 0.03 0.06 0.01 0.00 0.00 0.00 0.00 0.00 0.00 0.00 0.00
0.00 0.00 0.00 0.00 0.00 0.00 0.00 0.00 0.00 0.00 0.00 0.00 0.00 0.00 0.00 0.00 0.00 0.00 0.00 0.00 0.00 0.00 0.00 0.00 0.00 0.00 0.00 0.00 0.00 0.00 0.00 0.00 0.01 0.00 0.04 0.03 0.02 0.06 0.00 0.00 0.00 0.00 0.00 0.00 0.00
0.00 0.00 0.00 0.00 0.00 0.00 0.00 0.00 0.00 0.00 0.00 0.00 0.00 0.00 0.00 0.00 0.00 0.00 0.00 0.00 0.00 0.00 0.00 0.00 0.00 0.00 0.00 0.00 0.00 0.00 0.00 0.00 0.00 0.00 0.00 0.00 0.08 0.07 0.00 0.00 0.00 0.00 0.00 0.00 0.00
0.00 0.00 0.00 0.00 0.00 0.00 0.00 0.00 0.00 0.00 0.00 0.00 0.00 0.00 0.00 0.00 0.00 0.00 0.00 0.00 0.00 0.00 0.00 0.00 0.00 0.00 0.00 0.00 0.00 0.00 0.00 0.00 0.00 0.01 0.02 0.00 0.01 0.00 0.00 0.00 0.00 0.00 0.00 0.00 0.00
0.00 0.00 0.00 0.00 0.00 0.00 0.00 0.00 0.00 0.00 0.00 0.00 0.00 0.00 0.00 0.00 0.00 0.00 0.00 0.00 0.00 0.00 0.00 0.00 0.00 0.00 0.00 0.00 0.00 0.00 0.00 0.00 0.00 0.02 0.35 0.15 0.02 0.01 0.00 0.00 0.00 0.00 0.00 0.00 0.00
0.00 0.00 0.00 0.00 0.00 0.00 0.00 0.00 0.00 0.00 0.00 0.00 0.00 0.00 0.00 0.00 0.00 0.00 0.00 0.00 0.00 0.00 0.00 0.00 0.00 0.00 0.00 0.00 0.00 0.00 0.00 0.00 0.00 0.00 0.01 0.01 0.01 0.02 0.00 0.00 0.00 0.00 0.00 0.00 0.00
0.00 0.00 0.00 0.00 0.00 0.00 0.00 0.00 0.00 0.00 0.00 0.00 0.00 0.00 0.00 0.00 0.00 0.00 0.00 0.00 0.00 0.00 0.00 0.00 0.00 0.00 0.00 0.00 0.00 0.00 0.00 0.00 0.00 0.00 0.00 0.00 0.00 0.00 0.00 0.00 0.00 0.00 0.00 0.00 0.00
0.00 0.00 0.00 0.00 0.00 0.00 0.00 0.00 0.00 0.00 0.00 0.00 0.00 0.00 0.00 0.00 0.00 0.00 0.00 0.00 0.00 0.00 0.00 0.00 0.00 0.00 0.00 0.00 0.00 0.00 0.00 0.00 0.00 0.00 0.00 0.00 0.00 0.00 0.00 0.00 0.00 0.00 0.00 0.00 0.00
0.00 0.00 0.00 0.00 0.00 0.00 0.00 0.00 0.00 0.00 0.00 0.00 0.00 0.00 0.00 0.00 0.00 0.00 0.00 0.00 0.00 0.00 0.00 0.00 0.00 0.00 0.00 0.00 0.00 0.00 0.00 0.00 0.00 0.00 0.00 0.00 0.00 0.00 0.00 0.00 0.00 0.00 0.00 0.00 0.00
MSLP
1017.14 1016.85 1016.51 1016.10 1015.75 1015.35 1015.09 1014.86 1014.51 1013.95 1013.59 1013.16 1013.00 1012.78 1012.30 1011.92 1011.36 1010.87 1008.01 1006.28 1006.91 1007.78 1007.84 1007.32 1006.74 1006.48 1006.29 1004.69 1003.93 1003.26 1002.89 1002.42 1002.52 1002.75 1003.90 1004.57 1004.90 1005.40 1005.51 1005.76 1006.18 1006.44 1006.91 1008.64 1010.31
1017.12 1016.81 1016.50 1016.12 1015.78 1015.37 1014.96 1014.77 1014.36 1013.98 1013.48 1013.13 1012.80 1012.55 1012.21 1011.85 1010.33 1007.88 1006.56 1006.48 1007.08 1007.52 1007.05 1006.30 1005.85 1005.62 1004.19 1003.34 1002.77 1002.90 1002.18 1001.96 1002.32 1002.59 1003.36 1004.28 1004.66 1005.34 1005.45 1006.17 1006.92 1008.03 1008.89 1009.28 1010.07
1017.10 1016.72 1016.37 1016.06 1015.72 1015.41 1015.00 1014.55 1014.31 1013.83 1013.38 1013.08 1012.62 1012.35 1012.06 1011.61 1008.78 1005.08 1006.08 1006.44 1006.96 1007.12 1005.73 1005.65 1004.98 1004.86 1003.40 1002.84 1002.45 1003.99 1002.23 1002.20 1002.78 1002.93 1003.26 1004.18 1004.68 1004.90 1005.00 1005.54 1006.45 1007.61 1008.61 1009.30 1009.50
1016.94 1016.61 1016.24 1015.93 1015.58 1015.22 1014.92 1014.41 1014.14 1013.73 1013.26 1012.88 1012.51 1012.15 1011.86 1010.53 1006.42 1005.35 1006.41 1006.53 1006.89 1006.42 1005.44 1005.31 1004.96 1004.27 1002.83 1003.41 1002.30 1002.91 1002.25 1002.42 1002.98 1003.60 1003.41 1004.10 1004.84 1004.71 1005.60 1005.32 1006.42 1007.49 1008.21 1008.65 1008.86
1016.82 1016.42 1016.12 1015.76 1015.45 1015.01 1014.63 1014.25 1013.79 1013.55 1012.99 1012.61 1012.32 1012.02 1011.20 1008.27 1005.13 1006.05 1006.71 1006.97 1007.02 1006.33 1005.11 1004.96 1004.26 1003.52 1002.78 1002.99 1002.68 1002.48 1002.61 1002.82 1003.20 1003.40 1003.72 1004.53 1004.72 1005.10 1005.80 1005.98 1006.66 1007.47 1008.03 1008.19 1008.61
1016.80 1016.29 1015.85 1015.57 1015.16 1014.72 1014.24 1013.96 1013.48 1013.08 1012.65 1012.22 1012.08 1011.99 1010.12 1006.03 1004.42 1005.70 1006.16 1006.67 1005.86 1005.24 1004.65 1004.32 1003.30 1003.19 1002.92 1002.56 1002.44 1002.48 1002.76 1002.93 1003.28 1003.56 1004.08 1004.19 1005.03 1005.04 1006.00 1006.29 1006.77 1007.47 1007.53 1007.98 1008.62
1016.73 1016.22 1015.72 1015.34 1014.87 1014.44 1013.95 1013.58 1013.05 1012.53 1012.19 1011.78 1011.78 1011.19 1007.90 1004.44 1004.32 1005.04 1005.48 1005.54 1004.71 1004.37 1003.72 1003.65 1003.90 1003.38 1002.50 1002.30 1002.97 1002.78 1002.92 1003.21 1003.39 1003.63 1004.08 1004.25 1005.12 1004.92 1005.95 1006.22 1006.77 1007.06 1007.31 1007.80 1008.52
1016.42 1015.89 1015.46 1015.07 1014.62 1014.11 1013.63 1013.09 1012.54 1011.94 1011.57 1011.31 1011.45 1010.11 1005.63 1004.27 1004.13 1004.32 1004.81 1004.77 1004.19 1003.88 1003.27 1003.48 1004.15 1003.11 1002.61 1002.91 1003.04 1003.01 1003.25 1004.03 1004.21 1004.21 1004.23 1005.50 1006.92 1005.48 1005.86 1005.96 1006.26 1006.61 1007.23 1007.90 1008.45
1016.35 1015.78 1015.18 1014.72 1014.32 1013.85 1013.24 1012.65 1011.91 1011.36 1010.96 1010.97 1010.54 1008.24 1004.41 1005.23 1004.28 1003.75 1004.04 1003.66 1003.80 1003.81 1003.92 1004.21 1003.65 1002.33 1002.61 1002.66 1003.08 1003.49 1005.11 1005.66 1006.81 1004.26 1004.11 1005.08 1007.76 1006.38 1005.38 1005.60 1005.77 1006.22 1006.91 1007.61 1008.61
1016.22 1015.64 1015.10 1014.46 1013.95 1013.43 1012.66 1012.18 1011.50 1011.14 1010.69 1009.76 1008.17 1006.56 1003.95 1003.03 1003.05 1003.27 1003.55 1003.29 1003.45 1003.57 1003.70 1003.67 1002.97 1002.03 1002.07 1002.39 1004.42 1005.39 1004.23 1004.77 1004.31 1005.51 1004.22 1004.55 1005.39 1007.30 1005.55 1005.82 1005.39 1006.06 1006.61 1007.36 1007.76
1016.03 1015.35 1014.72 1014.17 1013.65 1013.30 1012.54 1010.68 1010.42 1009.19 1007.80 1004.81 1003.85 1002.90 1002.32 1002.02 1002.68 1002.83 1003.12 1002.93 1003.19 1003.25 1002.77 1002.60 1001.91 1001.34 1002.13 1002.51 1003.40 1003.38 1003.95 1004.32 1003.83 1003.92 1004.03 1004.62 1004.86 1006.11 1007.11 1006.99 1005.70 1005.29 1006.09 1006.68 1007.19
1015.71 1015.02 1014.40 1013.81 1013.30 1012.92 1012.40 1008.25 1006.61 1006.33 1004.69 1003.99 1003.31 1002.54 1002.42 1002.68 1002.46 1002.28 1002.77 1002.56 1002.64 1002.22 1002.17 1001.41 1001.01 1001.90 1002.81 1003.00 1002.58 1002.94 1003.59 1004.14 1003.63 1003.95 1004.32 1003.85 1003.98 1004.24 1005.21 1005.01 1005.00 1004.89 1005.32 1005.70 1006.61
1015.30 1014.72 1014.14 1013.50 1012.87 1011.87 1008.99 1006.60 1006.55 1005.95 1004.04 1002.07 1002.29 1002.25 1002.41 1002.66 1001.35 1001.37 1002.25 1002.10 1001.94 1001.72 1001.12 1000.30 999.96 1001.17 1002.31 1002.00 1002.33 1003.49 1003.62 1004.14 1003.02 1003.30 1003.72 1003.66 1003.49 1002.77 1003.03 1003.48 1003.22 1004.40 1004.45 1004.85 1005.85
1014.99 1014.42 1013.98 1013.29 1012.64 1008.32 1007.03 1006.47 1006.38 1006.06 1003.22 1001.10 1001.37 1001.14 1001.42 1001.79 1001.02 1000.77 1001.69 1001.62 1001.01 1000.91 1000.37 1000.01 999.72 1001.13 1002.00 1001.25 1002.67 1002.68 1003.66 1002.82 1002.90 1003.18 1003.12 1003.49 1002.31 1002.10 1001.52 1001.40 1001.95 1003.02 1004.07 1004.22 1005.64
1014.68 1014.12 1013.83 1013.75 1011.29 1007.42 1006.23 1006.29 1005.99 1005.55 1001.13 999.78 1000.04 999.97 1000.54 1000.73 999.62 1000.34 1001.15 1001.11 1000.30 1000.29 999.99 999.26 999.31 999.89 1000.44 1000.22 1001.13 1002.76 1003.67 1002.66 1002.46 1002.85 1002.63 1002.43 1002.29 1000.78 999.83 999.42 999.97 1001.21 1001.88 1002.66 1004.55
1014.14 1013.65 1013.31 1011.97 1010.67 1007.20 1006.56 1006.24 1005.84 1003.79 999.40 999.09 999.70 1000.07 999.78 1000.12 999.39 999.84 1000.77 1001.20 1000.44 999.92 999.47 998.83 998.81 999.25 999.60 999.94 1000.99 1001.92 1001.67 1001.90 1002.19 1002.72 1002.65 1002.75 1001.19 1000.78 1000.16 998.11 998.65 999.89 1001.03 1001.88 1003.38
1013.28 1012.88 1012.68 1009.64 1006.82 1006.63 1006.56 1005.81 1003.68 1000.53 998.47 998.29 998.69 998.93 999.01 999.03 999.00 999.39 1000.03 1000.23 999.84 999.76 998.72 998.65 998.80 999.21 999.62 999.80 1000.77 1001.34 1000.89 1001.70 1003.45 1004.94 1005.62 1003.50 1000.41 998.60 997.77 997.76 997.69 998.60 1000.03 1001.27 1002.76
1012.42 1012.03 1010.29 1008.79 1007.26 1007.04 1006.37 1004.71 1001.34 998.25 997.40 997.63 997.67 998.14 998.05 998.00 998.37 999.23 999.31 999.19 999.78 999.03 998.04 997.70 998.14 998.38 999.33 999.68 999.41 1000.10 1000.25 1002.85 1003.76 1002.65 1003.37 1002.80 999.89 998.41 997.74 997.56 997.61 997.87 999.35 1000.79 1002.12
1011.40 1009.42 1007.99 1006.80 1007.21 1006.91 1005.38 1002.52 999.33 997.92 997.64 997.72 997.76 997.28 997.19 997.19 997.64 997.98 998.25 998.23 998.37 998.49 997.78 996.90 996.92 997.23 998.35 999.27 999.47 999.44 999.73 1000.76 1001.52 1000.64 1001.68 1003.81 1001.04 998.81 997.89 997.62 997.62 997.87 999.05 1000.20 1001.36
1010.73 1007.10 1005.79 1006.41 1006.62 1006.25 1004.47 1001.15 999.03 999.09 999.29 998.69 997.12 996.84 996.25 996.38 996.96 996.90 997.00 997.16 997.25 997.65 997.76 996.97 996.44 996.74 997.84 998.87 998.84 999.23 1000.56 1000.08 1001.17 1000.91 1001.87 1002.89 1002.43 1002.86 998.15 997.61 997.46 997.58 998.41 999.45 1000.70
1010.12 1006.03 1005.55 1006.13 1006.17 1005.01 1002.54 1000.43 999.42 999.78 999.98 998.85 997.54 996.34 995.92 995.78 996.29 996.21 996.37 996.54 996.70 996.78 997.40 997.32 996.81 996.98 997.21 998.20 998.62 999.33 999.69 999.77 1000.46 1000.36 1000.60 1000.77 1003.18 1000.98 998.56 997.22 997.21 997.52 998.01 998.79 1000.13
1008.13 1005.09 1005.40 1005.63 1004.96 1003.20 1001.44 1000.05 1000.58 999.83 1000.08 999.33 998.87 997.47 996.43 995.63 995.72 996.15 996.08 995.84 996.97 996.84 996.76 997.55 997.32 996.51 996.69 997.02 998.31 998.20 997.77 998.52 998.78 999.42 1001.33 1001.73 1000.20 999.61 997.38 996.77 996.78 997.17 997.92 998.72 1000.13
1007.86 1004.79 1005.09 1005.06 1003.17 1001.42 1000.88 1000.82 1000.92 1000.24 999.88 999.34 998.74 998.40 997.66 996.60 996.09 996.02 996.00 997.77 997.75 997.87 997.79 997.95 997.66 996.77 996.30 996.70 997.12 997.39 997.60 997.53 997.66 999.81 1003.50 1004.19 1000.49 998.31 996.98 996.47 996.68 996.99 998.12 999.36 1000.51
1008.87 1004.82 1004.12 1004.50 1003.32 1002.10 1000.36 1000.48 1000.61 1001.21 1000.48 1000.44 999.56 999.31 998.53 997.85 997.12 996.51 996.62 998.30 998.94 998.77 999.64 999.16 997.58 996.83 995.81 995.42 995.68 996.52 997.21 997.14 997.22 997.93 999.36 1000.47 998.59 997.80 996.49 996.28 996.54 997.15 998.43 999.66 1000.69
1008.38 1005.44 1005.58 1003.09 1002.82 1002.26 1001.65 1000.89 1000.35 1000.44 1001.36 1000.97 1000.14 999.70 998.75 998.08 997.72 997.61 997.78 998.70 999.70 999.74 999.83 999.32 997.63 996.84 996.24 995.64 995.19 995.27 995.87 996.40 996.66 996.98 997.59 997.84 997.25 996.06 995.76 995.95 996.68 997.40 998.69 999.72 1000.64
1009.61 1008.13 1006.66 1005.12 1004.19 1003.59 1002.63 1002.11 1001.31 1000.68 1001.33 1001.00 1000.83 999.83 999.93 999.33 998.77 998.05 998.20 998.62 998.79 999.43 999.47 998.77 997.95 997.30 996.57 996.04 995.63 995.38 995.07 995.17 995.79 995.98 996.26 995.99 995.60 995.34 995.38 995.91 996.60 997.42 998.55 999.59 1000.39
1011.08 1009.76 1008.82 1006.02 1004.71 1003.73 1002.70 1002.19 1001.96 1001.86 1002.33 1002.61 1001.95 1000.97 1001.26 1001.06 1001.77 1001.01 1000.07 999.23 998.75 998.89 998.38 997.96 997.62 997.19 996.41 996.24 995.92 995.28 995.04 994.89 994.85 994.94 995.66 995.04 994.91 995.54 995.58 996.13 996.16 996.97 998.13 999.23 1000.10
Thickness
5769 5772 5775 5780 5783 5787 5790 5793 5796 5801 5804 5808 5809 5811 5814 5817 5821 5826 5836 5858 5855 5849 5847 5848 5847 5845 5846 5848 5858 5864 5822 5817 5824 5823 5817 5835 5823 5837 5845 5831 5833 5837 5833 5825 5820
5768 5771 5774 5778 5782 5786 5790 5792 5797 5800 5805 5808 5812 5814 5816 5819 5831 5840 5861 5861 5856 5852 5849 5843 5838 5845 5846 5853 5861 5843 5833 5834 5849 5846 5832 5834 5832 5829 5828 5821 5818 5813 5819 5824 5821
5766 5770 5773 5777 5780 5784 5789 5793 5795 5800 5805 5808 5813 5815 5817 5821 5834 5858 5865 5862 5858 5857 5865 5859 5859 5848 5845 5861 5860 5826 5830 5848 5845 5850 5848 5834 5831 5841 5830 5817 5822 5812 5813 5817 5820
5765 5768 5772 5775 5779 5783 5787 5792 5795 5799 5804 5808 5812 5816 5818 5829 5821 5866 5863 5862 5859 5862 5863 5853 5848 5838 5847 5828 5863 5824 5855 5852 5847 5847 5846 5834 5838 5833 5827 5833 5838 5830 5826 5823 5821
5763 5767 5770 5774 5777 5781 5786 5790 5795 5798 5804 5808 5811 5814 5825 5832 5847 5864 5860 5858 5857 5860 5855 5846 5844 5845 5838 5844 5852 5844 5847 5850 5850 5849 5846 5842 5831 5828 5824 5837 5840 5833 5828 5825 5823
5758 5763 5767 5771 5775 5779 5784 5788 5794 5799 5803 5807 5810 5812 5824 5825 5876 5866 5864 5858 5862 5861 5857 5858 5857 5862 5850 5850 5847 5856 5850 5848 5848 5843 5842 5834 5828 5834 5827 5837 5830 5826 5827 5827 5822
5753 5758 5763 5766 5772 5776 5781 5785 5792 5798 5803 5807 5808 5815 5829 5846 5874 5870 5866 5862 5872 5868 5857 5868 5866 5856 5863 5849 5860 5856 5835 5842 5843 5844 5834 5842 5811 5819 5831 5832 5821 5822 5825 5826 5821
5749 5754 5758 5763 5768 5773 5778 5784 5790 5796 5802 5806 5806 5817 5830 5869 5873 5869 5869 5863 5876 5877 5875 5876 5867 5862 5858 5863 5852 5838 5837 5808 5832 5838 5841 5820 5758 5820 5833 5827 5820 5822 5821 5818 5818
5744 5749 5755 5760 5764 5770 5777 5783 5791 5796 5800 5803 5808 5819 5830 5858 5852 5869 5871 5859 5866 5868 5869 5868 5864 5859 5857 5838 5823 5830 5765 5761 5764 5839 5838 5822 5748 5807 5839 5829 5821 5822 5820 5817 5811
5741 5746 5751 5758 5763 5768 5776 5782 5788 5793 5798 5807 5819 5811 5841 5840 5857 5864 5871 5869 5854 5853 5847 5847 5848 5841 5846 5836 5766 5759 5803 5805 5810 5788 5831 5824 5814 5793 5828 5823 5824 5820 5818 5814 5814
5737 5744 5750 5755 5761 5765 5774 5791 5792 5795 5806 5824 5830 5833 5844 5861 5865 5854 5864 5858 5854 5842 5821 5842 5829 5828 5835 5843 5831 5835 5823 5808 5823 5836 5826 5814 5815 5806 5771 5784 5818 5824 5818 5816 5815
5734 5741 5747 5753 5759 5764 5770 5798 5809 5811 5805 5826 5832 5837 5847 5849 5827 5844 5861 5837 5833 5820 5835 5838 5826 5837 5822 5837 5842 5836 5819 5802 5830 5832 5821 5822 5815 5823 5815 5820 5822 5826 5821 5824 5819
5732 5738 5744 5751 5757 5768 5792 5806 5816 5817 5800 5823 5830 5825 5829 5835 5831 5835 5847 5842 5828 5822 5831 5833 5855 5852 5827 5837 5831 5812 5808 5794 5823 5831 5829 5818 5804 5822 5833 5835 5840 5827 5832 5835 5825
5729 5735 5739 5747 5755 5793 5793 5809 5812 5812 5787 5807 5812 5825 5834 5833 5819 5854 5854 5841 5834 5822 5837 5843 5867 5838 5819 5837 5825 5814 5824 5836 5827 5815 5788 5821 5790 5813 5828 5834 5837 5833 5821 5834 5824
5725 5731 5735 5738 5760 5782 5798 5806 5809 5800 5769 5819 5821 5855 5839 5822 5840 5834 5857 5842 5825 5828 5841 5839 5848 5842 5832 5846 5845 5813 5809 5830 5836 5822 5820 5812 5794 5806 5842 5837 5842 5839 5840 5844 5833
5725 5730 5735 5747 5757 5786 5795 5800 5795 5767 5770 5805 5821 5813 5816 5820 5831 5838 5830 5843 5848 5834 5845 5852 5876 5860 5853 5860 5844 5840 5839 5838 5839 5824 5786 5772 5815 5789 5796 5852 5853 5850 5847 5847 5837
5728 5732 5736 5759 5775 5787 5791 5784 5764 5769 5821 5804 5805 5817 5814 5810 5819 5820 5812 5810 5806 5794 5809 5838 5840 5854 5856 5838 5840 5834 5831 5792 5765 5742 5710 5768 5830 5842 5866 5867 5867 5857 5852 5849 5840
5731 5735 5752 5763 5775 5780 5778 5766 5756 5809 5814 5826 5822 5817 5804 5818 5816 5811 5808 5804 5819 5824 5825 5818 5804 5842 5848 5836 5837 5834 5837 5762 5751 5790 5763 5782 5824 5838 5871 5876 5876 5875 5864 5854 5842
5736 5753 5762 5774 5772 5775 5766 5757 5784 5806 5817 5809 5812 5803 5806 5819 5818 5813 5810 5811 5824 5831 5812 5826 5825 5865 5854 5848 5848 5831 5822 5840 5810 5843 5818 5773 5806 5859 5869 5866 5869 5867 5860 5851 5846
5740 5764 5770 5773 5772 5767 5757 5761 5794 5805 5801 5803 5795 5812 5802 5813 5807 5812 5814 5831 5828 5840 5848 5842 5822 5858 5849 5849 5852 5838 5835 5811 5804 5785 5772 5783 5783 5743 5845 5852 5863 5862 5858 5857 5854
5740 5757 5769 5771 5769 5757 5754 5775 5792 5800 5795 5793 5800 5810 5817 5816 5815 5814 5817 5834 5842 5842 5846 5842 5838 5832 5849 5820 5817 5820 5814 5826 5819 5829 5806 5819 5774 5803 5840 5863 5862 5864 5868 5866 5858
5749 5747 5766 5768 5744 5761 5763 5783 5756 5789 5793 5794 5797 5806 5811 5827 5816 5812 5815 5837 5843 5846 5827 5836 5828 5817 5828 5854 5844 5841 5844 5837 5816 5821 5790 5802 5816 5840 5869 5874 5875 5870 5871 5873 5863
5741 5756 5763 5760 5741 5761 5772 5770 5772 5777 5782 5787 5789 5798 5809 5808 5802 5819 5832 5820 5830 5827 5822 5830 5810 5801 5816 5836 5845 5826 5838 5849 5859 5813 5732 5710 5801 5858 5872 5873 5875 5871 5868 5864 5858
5728 5738 5749 5748 5756 5752 5765 5762 5759 5770 5773 5778 5782 5790 5791 5790 5809 5806 5813 5806 5814 5818 5796 5813 5817 5809 5806 5826 5846 5820 5824 5839 5845 5823 5808 5784 5827 5802 5859 5862 5869 5870 5866 5861 5855
5725 5734 5729 5739 5741 5747 5753 5758 5757 5756 5761 5769 5770 5777 5784 5781 5791 5790 5802 5796 5796 5790 5800 5804 5796 5819 5830 5842 5850 5845 5833 5832 5830 5843 5819 5829 5835 5859 5866 5865 5866 5869 5864 5857 5852
5694 5699 5715 5721 5729 5725 5722 5733 5741 5754 5749 5753 5754 5776 5776 5774 5781 5784 5791 5790 5787 5797 5792 5809 5787 5807 5805 5830 5835 5827 5844 5847 5840 5847 5845 5850 5849 5879 5881 5878 5867 5865 5861 5853 5851
5677 5686 5683 5698 5711 5715 5725 5731 5733 5741 5740 5740 5748 5757 5758 5759 5760 5772 5787 5794 5796 5793 5795 5799 5797 5794 5787 5816 5817 5802 5826 5838 5845 5857 5842 5836 5862 5866 5866 5863 5869 5867 5863 5856 5853